Regional Weather Roundup
Issued by NWS New Orleans/Baton Rouge, LA

Home | Current Version | Previous Version | Graphics & Text | Print | Product List | Glossary On
Versions: 1 2 3 4 5 6 7 8 9 10 11 12 13 14 15 16 17 18 19 20 21 22 23 24 25 26 27 28 29 30 31 32 33 34 35 36 37 38 39 40 41 42 43 44 45 46 47 48 49 50
539
ASUS44 KLIX 212301
RWRLIX
NEW ORLEANS REGIONAL WEATHER ROUNDUP
NATIONAL WEATHER SERVICE NEW ORLEANS LA
500 PM CST FRI NOV 21 2014

NOTE: "FAIR" INDICATES FEW OR NO CLOUDS BELOW 12,000 FEET WITH NO
      SIGNIFICANT WEATHER AND/OR OBSTRUCTIONS TO VISIBILITY.
      SKY/WX - SKY CONDITION AND SIGNIFICANT WEATHER.
      TMP - AIR TEMPERATURE.     DP    - DEWPOINT TEMPERATURE.
      RH  - RELATIVE HUMIDITY.   PRES  - PRESSURE.
      HI  - HEAT INDEX.          WCI   - WIND CHILL INDEX.

*  THESE STATIONS ARE NOT NWS OR FAA STATIONS AND ARE NOT UNDER
   NWS QUALITY CONTROL.

LAZ038-040-048-061>063-065>067-069-220000-
SOUTHEAST LOUISIANA

CITY           SKY/WX    TMP DP  RH WIND       PRES   REMARKS
N.O. AUDUBON     N/A     64  56  73 MISG        N/A
N.O. INTL ARPT PTCLDY    63  53  70 E10       30.26R
N.O. LAKEFRONT CLEAR     61  53  75 E10       30.27R
N.O. DOWNTOWN*   N/A     63  52  67 NE5       30.27S
SLIDELL        CLEAR     63  50  62 E7        30.27R
BATON ROUGE    PTCLDY    65  49  56 E13       30.24R
BOOTHVILLE     CLEAR     64  52  64 E10       30.26R
BELLE CHASSE   PTCLDY    62  52  69 NE9       30.26R
BOGALUSA*        N/A     66  40  39 S7        30.29R
NEW ROADS*       N/A     65  48  54 E8        30.23R
GONZALES*      NOT AVBL
HAMMOND*       CLEAR     64  50  59 SE9       30.28S
HOUMA*         CLEAR     64  50  59 E12       30.24R
PORT FOURCHON* CLEAR     66  54  63 E13G18    30.26R

$$

MSZ070-080>082-220000-
SOUTHERN MISSISSIPPI

CITY           SKY/WX    TMP DP  RH WIND       PRES   REMARKS
MCCOMB         CLEAR     64  43  46 SE10      30.26R
GULFPORT       CLEAR     60  47  61 SE13      30.28R
BILOXI         NOT AVBL
PASCAGOULA     CLEAR     59  46  62 SE6       30.29R

$$

COASTAL OBSERVATIONS
LAKE AND NEARSHORE STATIONS

STATION/POSITION TIME  TEMP    WIND        PRES    WAVE
                       AIR SEA DIR/SP/G            HT/PER
                 (UTC) (F)     (DEG/KT/KT) (MB)    (FT/S)
PASCAGOULA       2200   62     120/  5/ 12 1024.8
WAVELAND YACHT   2200   61     120/ 12/ 13 1024.5
GRAND ISLE       2200   65 59   90/  9/ 12 1024.3
SOUTHWEST PASS   2200   69 73              1023.7
NEW CANAL        2200   63 55   90/  8/ 16 1025.0
SHELL BEACH      2200   61 53   70/ 10/ 12 1024.7

OFFSHORE STATIONS

STATION/POSITION TIME  TEMP    WIND        PRES    WAVE
                       AIR SEA DIR/SP/G            HT/PER
                 (UTC) (F)     (DEG/KT/KT) (MB)    (FT/S)
64 S DAUPHIN ISL 2154   67 73   90/ 19/ 23 1024.9    6/ 6

$$




USA.gov is the U.S. government's official web portal to all federal, state and local government web resources and services.